Flag for U.S.A. Weather past 2 weeks in Woodstock, New York, U.S.A.

Now
78 °F

Sunny.


Feels Like: 79 °F
Forecast: 54 / 80 °F
Wind: 6 mph from West

Location: Dutchess County Airport

Current Time: Jul 25, 2014 at 3:08:16 PM

Latest Report: Jul 25, 2014 at 1:53 PM


Visibility: 10 mi

Pressure: 29.98 "Hg

Humidity: 43%

Dew point: 54 °F

Location of WoodstockLocation

Historic Weather in Woodstock — Graph

°F

Woodstock temperature yesterday

Maximum temperature yesterday: 78 °F (at 1:53 PM)
Minimum temperature yesterday: 63 °F (at 11:53 PM)
Average temperature yesterday: 72 °F

Past Weeks' High & Low Weather Summary

 TemperatureHumidityPressure
High89 °F (Jul 23, 2:53 PM)97% (Jul 17, 4:53 AM)30.24 "Hg (Jul 17, 4:53 AM)
Low54 °F (Jul 18, 5:53 AM)34% (Jul 11, 3:53 PM)29.70 "Hg (Jul 15, 5:53 PM)
Average73 °F73%30.01 "Hg
* Reported Jul 10 1:53 PM — Jul 25 1:53 PM, Woodstock, Weather by CustomWeather, © 2014

Note: Actual official high and low records may vary slightly from our data, if they occured in-between our weather recording intervals... More about our weather records

Advertising

Woodstock weather history for previous 24 hours

 ConditionsComfort  
Time TempWeatherWind HumidityBarometerVisibility
1:53 PM
Jul 25
78 °FSunny.6 mph43%29.98 "Hg10 mi
12:53 PM75 °FSunny.No wind50%29.99 "Hg10 mi
11:53 AM75 °FSunny.5 mph52%30.01 "Hg10 mi
10:53 AM71 °FSunny.No wind55%30.02 "Hg10 mi
9:53 AM69 °FSunny.No wind61%30.03 "Hg10 mi
8:53 AM65 °FSunny.No wind70%30.04 "Hg10 mi
7:53 AM62 °FSunny.No wind78%30.02 "Hg10 mi
6:53 AM58 °FSunny.No wind90%29.99 "Hg10 mi
5:53 AM55 °FClear.No wind93%29.98 "Hg10 mi
4:53 AM56 °FClear.No wind93%29.96 "Hg10 mi
3:53 AM58 °FClear.No wind90%29.96 "Hg10 mi
2:53 AM59 °FClear.No wind87%29.95 "Hg10 mi
1:53 AM60 °FClear.No wind90%29.94 "Hg10 mi
12:53 AM61 °FClear.No wind90%29.93 "Hg10 mi
11:53 PM
Jul 24
63 °FClear.No wind87%29.91 "Hg10 mi
10:53 PM64 °FClear.No wind87%29.90 "Hg10 mi
9:53 PM65 °FClear.No wind85%29.88 "Hg10 mi
8:53 PM70 °FSunny.No wind71%29.87 "Hg10 mi
7:53 PM74 °FSunny.3 mph56%29.85 "Hg10 mi
6:53 PM76 °FSunny.7 mph50%29.84 "Hg10 mi
5:53 PM78 °FSunny.10 mph46%29.84 "Hg10 mi
4:53 PM78 °FScattered clouds.13 mph48%29.84 "Hg10 mi
3:53 PM78 °FScattered clouds.13 mph50%29.84 "Hg10 mi
Weather by CustomWeather, © 2014

See weather overviewHow to use our weather pages